Погода в Сосьве

Погода в Сосьве : погода сейчас, прогноз погоды и архив. Всё, что Вы хотите узнать о погоде в Сосьве!

Хотите узнать прогноз погоды в Сосьве? Тогда Вам сюда: Погода в Сосьве

Поиск расширенной информации на нашем сайте:

Другие новости

Новости СМИ2

Главная страница сайта

Новости сайта

02.10.2013

Напоминаем, что на нашем новом сайте вы можете получить высокодетализированные прогнозы погоды по пунктам России, СНГ и мира (включающие важные для авиации метеовеличины, такие как направление и скорость ветра, видимость, явления погоды, количество и форма облачности, нижняя и верхняя граница облачности), а также ознакомиться с разнообразными материалами по авиационной метеорологии и подборкой полезных ссылок на эту тему.

Сайт Метеоцентр.Азия посвящён разработке технологий оптимизации авиаметеорологического обслуживания, включая проектирование и перспективное создание нескольких автоматизированных авиаметеорологических систем:
- система выпуска высокодетальных прогностических карт явлений погоды для нижнего воздушного пространства по России и ближнему зарубежью;
- система верификации прогнозов TAF (выпускаемых синоптиками официальных АМСГ РФ и ближнего зарубежья) и AUTOTAF (выпускаемых сайтом Метеоцентр.Азия) - выявление ошибок, онлайн-сопоставление с фактической погодой METAR, автоматическое внесение коррективов в прогнозы при резком отклонении фактической погоды от прогноза, подсчёт оправдываемости прогнозов по элементам и в целом;
- система обработки, анализа и отображения авиаметеорологической информации для применения провайдерами метеорологической информации.

Рекомендуем: Видео логопедических занятий постановка звука.

Погода в Сосьве - сегодня

Время (UTC), дата Ветер
(°,м/с) 
Видим.   Явления Облачность Т
(°С)
Тd
(°С)
f(%) Тe
(°С)
Pmin
(гПа)
dP
(гПа)
Po
(мм)
O2
(г/м3)
Тmin Tmax R s Состояние
почвы
00 26.05.17 тихо ()   20000 м    ясно 
-0.5 -4.5 74 -1  1015.7  0.1  759  307           
03 26.05.17 230 (ЮЗ) 20000 м    3/0 верхняя 
[Ci fib]
+7.6 -6.4 36 +9  1013.8  -1.9  758  298  -2.3        влажная 
06 26.05.17 200 (Ю) 20000 м    10/0 верхняя 
[Cs]
+10.1 -5.5 33 +10  1011.3  -2.4  756  294           
09 26.05.17 160 (Ю) 20000 м    10/0 средняя 
[Ac trans]
+10.9 -2.3 40 +11  1008.3  -3  754  292           
12 26.05.17 120 (ЮВ) 1{14}  4000 м  дождь  10/0 средняя 
[As op]
+5.4 +4.2 92 +6  1006.1  -2.2  752  296           
15 26.05.17 120 (ЮВ) 20000 м  {дождь}  10/8 300 м средняя 
[Frnb|As op]
+5.6 +4.3 91 +6  1002.3  -3.7  749  295    +11     
18 26.05.17 тихо ()   20000 м  {дождь}  10/4 300 м средняя 
[Frnb|As op]
+5.6 +4.8 95 +6  1000.8  -3.7  748  295           
21 26.05.17 тихо ()   20000 м    10/4 300 м средняя 
[Frnb|As op]
+5.5 +4.8 95 +6  1000.9  -0.1  748  295           
00 27.05.17 тихо ()   4000 м  дымка{туман}  10/0 средняя 
[As op]
+5.4 +4.8 96 +5  1002  1.1  749  295           
03 27.05.17 тихо ()   4000 м  дымка  10/0 средняя 
[As op]
+5.1 +4.4 95 +5  1003.2  1.2  750  296  +4.9    0.8    влажная 
06 27.05.17 тихо ()   20000 м    10/8 600 м кучево-дожд., верхняя 
[Cb cap|Ci]
+7.9 +4.2 77 +8  1003.5  0.3  750  293           
09 27.05.17 080 (В) 20000 м    10/1 1000 м верхняя 
[Cu hum|Ci fib]
+12.8 +6.3 65 +14  1001.3  -2.2  749  287           
12 27.05.17 130 (ЮВ) 20000 м    10/3 600 м кучево-дожд., верхняя 
[Cb cap|Ci]
+18.1 +3.6 38 +19  997.6  -3.6  746  281           
18 27.05.17 280 (З) 20000 м  {ливн. осадки}  10/8 300 м средняя 
[Frnb|As op]
+6.8 +5.2 90 +8  997.3  1.5  746  292           
21 27.05.17 290 (З) 20000 м    10/0 средняя 
[As op]
+3.5 -0.3 76 +3  999.1  1.7  747  297           
00 28.05.17 280 (З) 20000 м    10/0 средняя 
[As op]
+1 +0.1 94 +2  1000.3  1.2  748  300           
03 28.05.17 290 (З) 4000 м  слаб. снег  10/8 300 м средняя 
[Frnb|As op]
+0.3 -0.4 95 +1  1000.3  0.1  748  301  +0.1      влажная 
09 28.05.17 310 (СЗ) 20000 м  в посл. час снег  10/3 600 м кучево-дожд., средняя 
[Cb cap|As op]
+3.2 +0.1 80 +4  1001.8  0.7  749  298           
12 28.05.17 400 () 20000 м  {снег}  10/0 средняя 
[As trans]
+3.3 -0.2 78 +4  1002.7  0.9  750  298           
18 28.05.17 330 (СЗ) 20000 м    ясно 
-1.8 -3.6 87 -1  1005.7  1.3  752  305           
21 28.05.17 тихо ()   20000 м    ясно 
-3.1 -5.2 85 -3  1006.7  0.9  752  307           
00 29.05.17 тихо ()   20000 м    ясно 
-2.2 -5.7 77 -2  1007.1  0.4  753  306           
03 29.05.17 тихо ()   20000 м    ясно 
+2.3 -5.7 55 +2  1007  0.1  753  301  -3.9        влажная 
06 29.05.17 тихо ()   20000 м    10/10 600 м кучево-дожд. 
[Cb calv]
+5.2 -8.8 36 +5  1006.7  -0.2  753  298           
09 29.05.17 280 (З) 20000 м    10/10 600 м кучево-дожд. 
[Cb calv]
+5.2 -8.1 38 +6  1006.9  0.1  753  298           
Время (UTC), дата Ветер
(°,м/с) 
Видим.   Явления Облачность Т
(°С)
Тd
(°С)
f(%) Тe
(°С)
Pmin
(гПа)
dP
(гПа)
Po
(мм)
O2
(г/м3)
Тmin Tmax R s Состояние
почвы

Для получения пояснительной информации подведите курсор к названию столбца.

ПОГОДА в Сосьве - архив

Всё, что Вы хотите узнать о погоде в Сосьве - удобно и подробно!

Выберите нужную дату (начиная с 1 января 2015* года) и нажмите кнопку "Найти".
Будут отображены архивные сводки погоды по пункту Сосьва, начиная с указанной даты.


Отображать данные в формате CSV (для использования в таблицах Excel)


Внимание! Наш архив погоды предназначен исключительно для личного некоммерческого использования в познавательных целях. Если Вам необходимы официальные справки о состоянии погоды (для производственных, юридических, коммерческих и т.п. целей), обращайтесь в органы Росгидромета.

*Примечание: данная дата относится к архиву по метеостанциям СССР (Россия, СНГ, Балтия).
Архив по метеостанциям Зарубежной Европы и Азии (кроме Китая) хранится 10 дней, по другим регионам земного шара (Китай, Африка, Америка, Австралия, Океания) - 1 день.

Сосьва - район местоположения метеостанции


Название, широта, долгота, высота метеостанции:
Сосьва 63.6°ш. 62.1°д. 28 м над ур. моря [Российская Федерация]

Дополнительная информация

В oтличие oт бoльшинства пoгoдных сайтoв мы публикуем пoдрoбную метеoинфoрмацию в детальнoм прoфессиoнальнoм фoрмате.

Характеристики температуры и влажнoсти вoздуха измеряются на высoте 2 м в тени вдали oт зданий и деревьев.
Скoрoсть ветра измеряется на высoте 10 м (на урoвне рoста челoвека скoрoсть ветра ниже в 1.5-2 раза). Если метеoстанция нахoдится в гoрoде или в лесу, тo скoрoсть ветра занижена на 2-4 м/с пo сравнению с oткрытым местoм. Скoрoсть ветра над акватoриями крупных рек и oзёр, а также на вершинах хoлмoв на 2-5 м/с выше, чем в oбычных услoвиях.
Атмoсфернoе давление в разных тoчках местнoсти мoжет значительнo oтличаться oт давления на метеoстанции, в зависимoсти oт услoвий рельефа (при пoдъёме на 10 м давление пoнижается примернo на 1 мм рт.ст.).